Regional Weather Roundup
Issued by NWS

Home | Current Version | Previous Version | Graphics & Text | Print | Product List | Glossary On
Versions: 1 2 3 4 5 6 7 8 9 10 11 12 13 14 15 16 17 18 19 20 21 22 23 24 25 26 27 28 29 30 31 32 33 34 35 36 37 38 39 40 41 42 43 44 45 46 47 48 49 50
000
ASUS43 KMKX 302110
RWRWI

WISCONSIN REGIONAL WEATHER ROUNDUP
NATIONAL WEATHER SERVICE MILWAUKEE/SULLIVAN WI
300 PM CST FRI JAN 30 2015

NOTE: "FAIR" INDICATES FEW OR NO CLOUDS BELOW 12,000 FEET WITH NO
SIGNIFICANT WEATHER AND/OR OBSTRUCTIONS TO VISIBILITY.

WIZ001-002-006>008-014>016-023>028-302200-
NORTHWEST WISCONSIN

CITY           SKY/WX    TMP DP  RH WIND       PRES   REMARKS
SUPERIOR ARPT  CLOUDY    18   4  55 SW6       30.34F WCI  10
ASHLAND        CLOUDY    16   7  67 S6        30.36F HAZE    WCI   7
HAYWARD        CLOUDY    15   2  56 S7        30.34F WCI   5
SIREN          PTSUNNY   18   6  58 S9        30.35F WCI   7
CUMBERLAND     PTSUNNY   18   5  57 SW3       30.35S
RICE LAKE      PTSUNNY   17   6  63 S8        30.37F WCI   6
CHETEK         PTSUNNY   17   6  62 SE5       30.37F WCI   9
LADYSMITH      CLOUDY    17   6  62 S8        30.37F WCI   6
EAU CLAIRE     PTSUNNY   18   5  57 SW8       30.39F WCI   8
MENOMONIE      PTSUNNY   20   8  58 S8        30.39F WCI  10
NEW RICHMOND   SUNNY     22  10  59 S10       30.35F WCI  11
OSCEOLA        SUNNY     24  11  59 S10       30.38F WCI  13
$$

WIZ003>005-009-010-017-018-302200-
NORTH CENTRAL WISCONSIN

CITY           SKY/WX    TMP DP  RH WIND       PRES   REMARKS
MANITOWISH WTR CLOUDY    15   2  56 S7        30.30F WCI   5
ARBOR VITAE    PTSUNNY   19   5  53 W7        30.31F WCI  10
WOODRUFF       PTSUNNY   19   5  53 W7        30.31F WCI  10
RHINELANDER    CLOUDY    17   2  51 SW7       30.31F WCI   8
EAGLE RIVER    PTSUNNY   16   1  50 W8        30.30F WCI   6
LAND O LAKES   CLOUDY    18   3  52 SW6       30.29F WCI  10
PHILLIPS       CLOUDY    17   2  52 SW7       30.32F WCI   8
TOMAHAWK       CLOUDY    19   3  49 CALM      30.33F
MEDFORD        CLOUDY    14   5  66 S7        30.34F WCI   4
MERRILL        MOSUNNY   17   5  58 SW6       30.36F WCI   8
$$

WIZ029-030-035-036-043>047-302200-
CENTRAL WISCONSIN

CITY           SKY/WX    TMP DP  RH WIND       PRES   REMARKS
WAUSAU         MOSUNNY   17   4  56 W6        30.35F WCI   9
MOSINEE        MOSUNNY   18   7  62 W8        30.38  WCI   7
MARSHFIELD     PTSUNNY   18   6  59 W6        30.37F WCI  10
STEVENS POINT  SUNNY     18   4  53 NW6       30.39F WCI  10
WAUPACA        MOSUNNY   25   6  45 W7        30.42F WCI  17
WAUTOMA        CLOUDY    23   7  50 SW6       30.42F WCI  16
WISC RAPIDS    MOSUNNY   20   5  52 S7        30.41F WCI  11
CAMP DOUGLAS   PTSUNNY   23   7  50 S3        30.40F
$$

WIZ011>013-019>022-031-037>040-048>050-302200-
NORTHEAST WISCONSIN

CITY           SKY/WX    TMP DP  RH WIND       PRES   REMARKS
ANTIGO         CLOUDY    16   5  62 SW7       30.34F WCI   6
SHAWANO        MOSUNNY   22   6  51 SW7       30.42F WCI  14
OCONTO         CLOUDY    18   8  64 MISG      30.43F
STURGEON BAY   PTSUNNY   18   3  53 W3        30.44F
GREEN BAY      PTSUNNY   21   8  57 SW5       30.43F WCI  15
MANITOWOC      MOSUNNY   26  11  52 NW3       30.43F
APPLETON       MOSUNNY   21   5  49 W6        30.42F WCI  14
CLINTONVILLE   PTSUNNY   21   7  53 SW5       30.41F WCI  15
OSHKOSH        SUNNY     22   8  55 SW6       30.42F WCI  14
$$

WIZ032>034-041-042-053>061-302200-
SOUTHWEST WISCONSIN

CITY           SKY/WX    TMP DP  RH WIND       PRES   REMARKS
LA CROSSE      MOSUNNY   26   8  46 SE5       30.42F WCI  20
SPARTA         MOSUNNY   23   7  50 W5        30.42F WCI  17
VIROQUA        MOSUNNY   25  10  54 S9        30.38F WCI  15
BOSCOBEL       FAIR      27   5  39 SW5       30.45F WCI  22
PRAIRIE DU CHI SUNNY     27   7  43 CALM      30.45F
PLATTEVILLE    SUNNY     25   9  50 S6        30.43F WCI  18
$$

WIZ056-057-062-063-064-067-068-302200-
SOUTH CENTRAL WISCONSIN

CITY           SKY/WX    TMP DP  RH WIND       PRES   REMARKS
REEDSBURG      PTSUNNY   23   9  55 W7        30.42F WCI  14
BARABOO/DELLS  SUNNY     23   9  55 W7        30.41F WCI  14
LONE ROCK      SUNNY     26   9  48 NW7       30.44F WCI  18
MINERAL POINT  SUNNY     27  12  54 SW3       30.42F
MADISON        MOSUNNY   24   8  50 W5        30.43F WCI  18
MIDDLETON      SUNNY     28   8  44 S5        30.42F WCI  23
WATERTOWN      SUNNY     25  10  54 SW6       30.44S WCI  18
MONROE         SUNNY     27  14  59 SW9       30.42S WCI  17
JANESVILLE     SUNNY     27  10  50 W6        30.45F WCI  20
$$

WIZ051-052-058>065-066-070>072-302200-
SOUTHEAST WISCONSIN

CITY           SKY/WX    TMP DP  RH WIND       PRES   REMARKS
MILWAUKEE      MOSUNNY   26   9  48 S5        30.44F WCI  20
WAUKESHA       MOSUNNY   23   7  50 W9        30.44F WCI  13
MILWAUKEE/TIMM SUNNY     27   3  36 W7        30.45F WCI  19
RACINE         SUNNY     25  11  55 E6        30.46F WCI  18
BURLINGTON     SUNNY     24   8  49 W3        30.45F
KENOSHA        SUNNY     27   7  42 W8        30.45S WCI  19
FOND DU LAC    SUNNY     22   7  52 W7        30.43F WCI  13
SHEBOYGAN      MOSUNNY   24   9  52 CALM      30.43F
WEST BEND      SUNNY     25   7  46 W3        30.42F
JUNEAU         SUNNY     23  10  58 SW8       30.44F WCI  14
$$

LSZ147-162-302200-
LAKE SUPERIOR

STATION/POSITION TIME  TEMP    WIND        PRES    WAVE
                       AIR SEA DIR/SP/G            HT/PER
                 (UTC) (F)     (DEG/KT/KT) (MB)    (FT/S)
DEVILS ISLAND    2100   16     220/  4/  6 1029.5F
PORT WING        2040   16     190/  7/  9 1028.1F
SAXON HARBOR     2000   19     210/  6/ 11 1028.8F
$$

LMZ867-665-643>646-302200-
LAKE MICHIGAN

STATION/POSITION TIME  TEMP    WIND        PRES    WAVE
                       AIR SEA DIR/SP/G            HT/PER
                 (UTC) (F)     (DEG/KT/KT) (MB)    (FT/S)
NORTHPORT PIER   2013   21     260/  1/  9 1030.8F
SISTER BAY       2043   32        CALM       N/A
KEWAUNEE LAKESHO 2000   20     290/  3/  7 1030.4F
SHEBOYGAN LAKESH 2100   20     130/  6/  7 1032.1F
PORT WASHINGTON  2000   24     150/  6/  9 1031.8
MILWAUKEE LAKESH 2000   23     120/  6/  8   N/A
KENOSHA   LAKESH 2100   28     130/  6/  8 1031.2F
$$

TC  - TEMPERATURE IN CELSIUS
VSB - VISIBILITY IN STATUTE MILES
WCI - WIND CHILL INDEX
HX  - HEAT INDEX




USA.gov is the U.S. government's official web portal to all federal, state and local government web resources and services.